Lakeville, MN

4:05 PM CDT on April 20, 2018 (GMT -0500)
Airlake

Weather History for KLVN - March, 2013

Change the Weather History Date:

Thursday, March 21, 2013

  Actual Average Record
Temperature  
Mean Temperature 10 °F -  
Max Temperature 24 °F 41 °F 64 °F (2012)
Min Temperature -5 °F 24 °F -12 °F (1965)
Degree Days  
Heating Degree Days 56    
Moisture  
Dew Point 3 °F    
Average Humidity 68    
Maximum Humidity 92    
Minimum Humidity 46    
Precipitation  
Precipitation 0.00 in - - ()
Sea Level Pressure  
Sea Level Pressure 30.07 in    
Wind  
Wind Speed 3 mph (West)    
Max Wind Speed 8 mph    
Max Gust Speed -    
Visibility 10 miles    
Events      
Averages and records for this station are not official NWS values.
T = Trace of Precipitation, MM = Missing Value Source: NWS Daily Summary

Daily Weather History Graph

Daily Weather History Graph

Search for Another Location

Airport or City:

Astronomy

Mar. 21, 2013 Rise Set
Actual Time 7:13 AM CDT 7:26 PM CDT
Civil Twilight 6:44 AM CDT 7:56 PM CDT
Nautical Twilight 6:10 AM CDT 8:30 PM CDT
Astronomical Twilight 5:35 AM CDT 9:05 PM CDT
Moon 1:45 PM CDT (3/21) 3:47 AM CDT (3/21)
Length of Visible Light 13h 11m
Length of Day
12h 13m
Waxing Gibbous, 69% of the Moon is Illuminated
Mar 21
Waxing Gibbous
Mar 27
Full
Apr 2
Last Quarter
Apr 10
New
Apr 18
First Quarter

Hourly Weather History & Observations

Time (CDT) Temp. Windchill Dew Point Humidity Pressure Visibility Wind Dir Wind Speed Gust Speed Precip Events Conditions
12:04 AM 6.8 °F -5.9 °F -0.4 °F 72% 30.11 in 10.0 mi West 8.1 mph - N/A   Clear
12:24 AM 6.8 °F -5.9 °F -0.4 °F 72% 30.11 in 10.0 mi WNW 8.1 mph - N/A   Clear
1:04 AM 6.8 °F -4.8 °F -0.4 °F 72% 30.11 in 10.0 mi WNW 6.9 mph - N/A   Clear
1:24 AM 6.8 °F -2.0 °F -0.4 °F 72% 30.11 in 10.0 mi WNW 4.6 mph - N/A   Clear
1:45 AM 6.8 °F - -0.4 °F 72% 30.10 in 10.0 mi Calm Calm - N/A   Clear
2:04 AM 5.0 °F -4.1 °F -2.2 °F 72% 30.10 in 10.0 mi West 4.6 mph - N/A   Clear
2:24 AM 5.0 °F - -2.2 °F 72% 30.09 in 10.0 mi Calm Calm - N/A   Clear
2:45 AM 3.2 °F -6.2 °F -2.2 °F 78% 30.09 in 10.0 mi West 4.6 mph - N/A   Clear
3:04 AM 3.2 °F - -2.2 °F 78% 30.09 in 10.0 mi Calm Calm - N/A   Clear
3:24 AM 1.4 °F - -2.2 °F 85% 30.09 in 10.0 mi Calm Calm - N/A   Clear
3:44 AM 3.2 °F - -2.2 °F 78% 30.09 in 10.0 mi Calm Calm - N/A   Clear
4:04 AM 3.2 °F - -2.2 °F 78% 30.09 in 10.0 mi Calm Calm - N/A   Clear
4:23 AM 1.4 °F - -2.2 °F 85% 30.09 in 10.0 mi Calm Calm - N/A   Clear
4:44 AM 1.4 °F - -4.0 °F 78% 30.08 in 10.0 mi Calm Calm - N/A   Clear
5:04 AM -0.4 °F -8.3 °F -4.0 °F 85% 30.08 in 10.0 mi WSW 3.5 mph - N/A   Clear
5:24 AM -0.4 °F - -5.8 °F 78% 30.08 in 10.0 mi Calm Calm - N/A   Clear
5:44 AM -2.2 °F - -5.8 °F 85% 30.09 in 10.0 mi Calm Calm - N/A   Clear
6:04 AM -2.2 °F - -5.8 °F 85% 30.08 in 10.0 mi Calm Calm - N/A   Clear
6:24 AM -2.2 °F - -5.8 °F 85% 30.08 in 10.0 mi Calm Calm - N/A   Clear
6:44 AM -5.8 °F - -7.6 °F 92% 30.09 in 10.0 mi Calm Calm - N/A   Clear
7:04 AM -4.0 °F - -5.8 °F 92% 30.09 in 10.0 mi Calm Calm - N/A   Clear
7:24 AM -2.2 °F - -5.8 °F 85% 30.09 in 10.0 mi Calm Calm - N/A   Clear
7:44 AM -0.4 °F - -4.0 °F 85% 30.09 in 10.0 mi Calm Calm - N/A   Clear
8:04 AM -0.4 °F - -4.0 °F 85% 30.10 in 10.0 mi Calm Calm - N/A   Clear
8:24 AM 1.4 °F - -4.0 °F 78% 30.10 in 10.0 mi Calm Calm - N/A   Clear
8:44 AM 3.2 °F - -2.2 °F 78% 30.10 in 10.0 mi Calm Calm - N/A   Clear
9:04 AM 6.8 °F - -0.4 °F 72% 30.10 in 10.0 mi Calm Calm - N/A   Clear
9:25 AM 6.8 °F - -0.4 °F 72% 30.09 in 10.0 mi Calm Calm - N/A   Clear
9:44 AM 10.4 °F - 1.4 °F 67% 30.10 in 10.0 mi Calm Calm - N/A   Clear
10:04 AM 10.4 °F - 1.4 °F 67% 30.09 in 10.0 mi Calm Calm - N/A   Clear
10:24 AM 12.2 °F - 3.2 °F 67% 30.09 in 10.0 mi Calm Calm - N/A   Clear
10:44 AM 14.0 °F - 3.2 °F 62% 30.09 in 10.0 mi Calm Calm - N/A   Clear
11:05 AM 15.8 °F - 3.2 °F 58% 30.09 in 10.0 mi Calm Calm - N/A   Clear
11:24 AM 17.6 °F - 3.2 °F 53% 30.08 in 10.0 mi Calm Calm - N/A   Clear
11:44 AM 19.4 °F - 3.2 °F 49% 30.08 in 10.0 mi Calm Calm - N/A   Clear
12:05 PM 19.4 °F - 6.8 °F 58% 30.08 in 10.0 mi Calm Calm - N/A   Clear
12:24 PM 21.2 °F - 5.0 °F 50% 30.08 in 10.0 mi Calm Calm - N/A   Clear
12:44 PM 21.2 °F - 5.0 °F 50% 30.07 in 10.0 mi Calm Calm - N/A   Clear
1:05 PM 21.2 °F - 6.8 °F 54% 30.07 in 10.0 mi Calm Calm - N/A   Clear
1:24 PM 21.2 °F - 6.8 °F 54% 30.07 in 10.0 mi Calm Calm - N/A   Clear
1:44 PM 23.0 °F - 6.8 °F 50% 30.06 in 10.0 mi Calm Calm - N/A   Clear
2:05 PM 24.8 °F 20.5 °F 8.6 °F 50% 30.05 in 10.0 mi SW 3.5 mph - N/A   Clear
2:24 PM 23.0 °F - 8.6 °F 54% 30.05 in 10.0 mi Calm Calm - N/A   Clear
2:44 PM 24.8 °F - 8.6 °F 50% 30.04 in 10.0 mi Calm Calm - N/A   Clear
3:05 PM 24.8 °F 20.5 °F 6.8 °F 46% 30.04 in 10.0 mi SSW 3.5 mph - N/A   Clear
3:24 PM 24.8 °F - 8.6 °F 50% 30.03 in 10.0 mi Calm Calm - N/A   Clear
3:44 PM 24.8 °F 17.9 °F 8.6 °F 50% 30.03 in 10.0 mi ENE 5.8 mph - N/A   Clear
4:03 PM 24.8 °F 20.5 °F 8.6 °F 50% 30.03 in 10.0 mi ESE 3.5 mph - N/A   Clear
4:24 PM 24.8 °F - 8.6 °F 50% 30.03 in 10.0 mi Calm Calm - N/A   Clear
4:44 PM 24.8 °F - 8.6 °F 50% 30.02 in 10.0 mi Calm Calm - N/A   Clear
5:04 PM 24.8 °F - 8.6 °F 50% 30.02 in 10.0 mi Calm Calm - N/A   Clear
5:24 PM 24.8 °F 20.5 °F 10.4 °F 54% 30.02 in 10.0 mi ESE 3.5 mph - N/A   Clear
5:45 PM 24.8 °F - 10.4 °F 54% 30.02 in 10.0 mi Calm Calm - N/A   Clear
6:04 PM 24.8 °F - 8.6 °F 50% 30.02 in 10.0 mi Calm Calm - N/A   Clear
6:25 PM 21.2 °F 13.6 °F 10.4 °F 63% 30.02 in 10.0 mi ESE 5.8 mph - N/A   Clear
6:44 PM 21.2 °F 14.9 °F 10.4 °F 63% 30.02 in 10.0 mi ESE 4.6 mph - N/A   Clear
7:04 PM 21.2 °F - 8.6 °F 58% 30.03 in 10.0 mi Calm Calm - N/A   Clear
7:24 PM 19.4 °F - 8.6 °F 63% 30.03 in 10.0 mi Calm Calm - N/A   Clear
7:44 PM 17.6 °F 10.7 °F 8.6 °F 68% 30.04 in 10.0 mi West 4.6 mph - N/A   Clear
8:04 PM 19.4 °F 10.4 °F 8.6 °F 63% 30.04 in 10.0 mi West 6.9 mph - N/A   Clear
8:24 PM 17.6 °F 8.2 °F 8.6 °F 68% 30.04 in 10.0 mi West 6.9 mph - N/A   Clear
8:44 PM 17.6 °F 9.3 °F 8.6 °F 68% 30.04 in 10.0 mi West 5.8 mph - N/A   Clear
9:04 PM 17.6 °F 12.3 °F 6.8 °F 63% 30.04 in 10.0 mi WSW 3.5 mph - N/A   Clear
9:24 PM 15.8 °F - 6.8 °F 68% 30.05 in 10.0 mi Calm Calm - N/A   Clear
9:44 PM 15.8 °F 7.2 °F 6.8 °F 68% 30.05 in 10.0 mi West 5.8 mph - N/A   Clear
10:05 PM 14.0 °F 6.5 °F 6.8 °F 73% 30.06 in 10.0 mi West 4.6 mph - N/A   Clear
10:24 PM 8.6 °F 2.0 °F 3.2 °F 79% 30.07 in 10.0 mi West 3.5 mph - N/A   Clear
10:44 PM 10.4 °F - 6.8 °F 85% 30.07 in 10.0 mi Calm Calm - N/A   Clear
11:05 PM 10.4 °F - 5.0 °F 79% 30.07 in 10.0 mi Calm Calm - N/A   Clear
11:24 PM 6.8 °F - 1.4 °F 79% 30.07 in 10.0 mi Calm Calm - N/A   Clear
11:44 PM 8.6 °F - 3.2 °F 79% 30.07 in 10.0 mi Calm Calm - N/A   Clear